Weather History for Watertown, NY

Change the Weather History Date:

Thursday, September 5, 2013

  Actual Average Record
Temperature  
Mean Temperature 54 °F 63 °F  
Max Temperature 67 °F 74 °F 93 °F (1973)
Min Temperature 40 °F 52 °F 33 °F (2000)
Degree Days  
Heating Degree Days 11 4  
Month to date heating degree days 11 16  
Since 1 July heating degree days 54 88  
Cooling Degree Days 0 2  
Month to date cooling degree days 17 10  
Year to date cooling degree days 450 334  
Growing Degree Days 4 (Base 50)    
Moisture  
Dew Point 44 °F    
Average Humidity 64    
Maximum Humidity 93    
Minimum Humidity 34    
Precipitation  
Precipitation 0.00 in 0.11 in 2.06 in (1953)
Month to date precipitation 0.81 0.54  
Year to date precipitation 22.61 22.34  
Sea Level Pressure  
Sea Level Pressure 30.09 in    
Wind  
Wind Speed 4 mph (NNW)    
Max Wind Speed 16 mph    
Max Gust Speed 22 mph    
Visibility 10 miles    
Events      
T = Trace of Precipitation, MM = Missing Value Source: NWS Daily Summary

Daily Weather History Graph

Daily Weather History Graph

Search for Another Location

Airport:

Trip Planner

Search our weather history database for the weather conditions in past years. The results will help you decide how hot, cold, wet, or windy it might be!

Date:

Astronomy

Sep. 05, 2013 Rise Set
Actual Time 6:32 AM EDT 7:32 PM EDT
Civil Twilight 6:02 AM EDT 8:01 PM EDT
Nautical Twilight 5:27 AM EDT 8:36 PM EDT
Astronomical Twilight 4:50 AM EDT 9:13 PM EDT
Moon 6:43 AM EDT (9/5) 7:19 PM EDT (9/5)
Length of Visible Light 13h 59m
Length of Day
13h 00m
New Moon, 0% of the Moon is Illuminated
Sep 5
New Moon
Sep 12
First Quarter
Sep 19
Full
Sep 26
Last Quarter
Oct 4
New

Hourly Weather History & Observations

Time (EDT) Temp. Dew Point Humidity Pressure Visibility Wind Dir Wind Speed Gust Speed Precip Events Conditions
12:56 AM 57.0 °F 53.1 °F 87% 29.93 in 10.0 mi Calm Calm - N/A   Clear
1:56 AM 57.0 °F 51.1 °F 81% 29.95 in 10.0 mi North 4.6 mph - N/A   Scattered Clouds
2:56 AM 55.0 °F 51.1 °F 86% 29.95 in 10.0 mi NE 3.5 mph - N/A   Mostly Cloudy
3:56 AM 54.0 °F 51.1 °F 90% 29.98 in 10.0 mi Calm Calm - N/A   Mostly Cloudy
4:56 AM 55.0 °F 48.0 °F 77% 30.01 in 10.0 mi NNE 5.8 mph - N/A   Mostly Cloudy
5:56 AM 52.0 °F 48.9 °F 89% 30.02 in 10.0 mi Calm Calm - N/A   Scattered Clouds
6:56 AM 53.1 °F 48.9 °F 86% 30.05 in 10.0 mi Calm Calm - N/A   Clear
7:56 AM 57.0 °F 48.9 °F 74% 30.07 in 10.0 mi Calm Calm - N/A   Clear
8:56 AM 59.0 °F 48.0 °F 67% 30.08 in 10.0 mi North 9.2 mph - N/A   Clear
9:56 AM 61.0 °F 46.9 °F 60% 30.10 in 10.0 mi Calm Calm - N/A   Clear
10:56 AM 63.0 °F 46.0 °F 54% 30.10 in 10.0 mi WNW 8.1 mph - N/A   Clear
11:56 AM 64.9 °F 42.1 °F 43% 30.10 in 10.0 mi NNW 5.8 mph - N/A   Scattered Clouds
12:56 PM 64.0 °F 41.0 °F 43% 30.11 in 10.0 mi Variable 6.9 mph - N/A   Scattered Clouds
1:56 PM 64.9 °F 39.9 °F 40% 30.12 in 10.0 mi NW 8.1 mph - N/A   Scattered Clouds
2:56 PM 64.0 °F 41.0 °F 43% 30.12 in 10.0 mi NW 12.7 mph 21.9 mph N/A   Scattered Clouds
3:56 PM 64.9 °F 36.0 °F 34% 30.12 in 10.0 mi NW 12.7 mph 16.1 mph N/A   Scattered Clouds
4:56 PM 64.9 °F 36.0 °F 34% 30.13 in 10.0 mi North 9.2 mph - N/A   Partly Cloudy
5:56 PM 63.0 °F 34.0 °F 34% 30.14 in 10.0 mi North 8.1 mph - N/A   Clear
6:56 PM 61.0 °F 39.0 °F 44% 30.16 in 10.0 mi North 4.6 mph - N/A   Scattered Clouds
7:56 PM 51.1 °F 44.1 °F 77% 30.17 in 10.0 mi Calm Calm - N/A   Clear
8:56 PM 46.0 °F 42.1 °F 86% 30.19 in 10.0 mi Calm Calm - N/A   Clear
9:56 PM 44.1 °F 41.0 °F 89% 30.20 in 10.0 mi Calm Calm - N/A   Clear
10:56 PM 43.0 °F 39.9 °F 89% 30.21 in 10.0 mi Calm Calm - N/A   Clear
11:56 PM 41.0 °F 39.9 °F 96% 30.21 in 10.0 mi Calm Calm - N/A   Clear